,,,PA_Meas_PMT16A,,PR_Meas_QMR101_102,,RH_Meas_QMH101,,SR_Meas_QMS101,,TA_Meas_QMH101,,GenWind,,GenWind,
date,time,status,PA,status,PR,status,RH,status,SR,status,TA,status,DirAvg,status,SpdAvg,
2012-07-21, 00:00:04,VALID,1002.08,VALID,0,VALID,89.2894,VALID,0,VALID,24.8332,VALID,119,VALID,0.0195313,
2012-07-21, 00:01:04,VALID,1002.07,VALID,0,VALID,89.3886,VALID,0,VALID,24.7922,VALID,119,VALID,0.132813,
2012-07-21, 00:02:04,VALID,1002.07,VALID,0,VALID,89.4878,VALID,0,VALID,24.8136,VALID,119,VALID,0.352734,
2012-07-21, 00:03:04,VALID,1002.07,VALID,0,VALID,89.6709,VALID,0,VALID,24.7922,VALID,119,VALID,0.276563,
2012-07-21, 00:04:04,VALID,1002.07,VALID,0,VALID,90.0448,VALID,0,VALID,24.7941,VALID,119,VALID,0.235938,
2012-07-21, 00:05:04,VALID,1002.09,VALID,0,VALID,89.9914,VALID,0,VALID,24.7727,VALID,119,VALID,0.2375,
2012-07-21, 00:06:04,VALID,1002.08,VALID,0,VALID,89.938,VALID,0,VALID,24.7532,VALID,113,VALID,0.650391,
2012-07-21, 00:07:04,VALID,1002.11,VALID,0,VALID,89.9303,VALID,0,VALID,24.7532,VALID,113,VALID,0.592578,
2012-07-21, 00:08:04,VALID,1002.09,VALID,0,VALID,89.7777,VALID,0,VALID,24.7532,VALID,113,VALID,0.611719,
2012-07-21, 00:09:04,VALID,1002.08,VALID,0,VALID,89.7625,VALID,0,VALID,24.7532,VALID,112,VALID,0.615625,
2012-07-21, 00:10:04,VALID,1002.08,VALID,0,VALID,89.5946,VALID,0,VALID,24.7532,VALID,109,VALID,0.586328,
2012-07-21, 00:11:04,VALID,1002.08,VALID,0,VALID,89.6328,VALID,0,VALID,24.7337,VALID,109,VALID,0.496094,
2012-07-21, 00:12:04,VALID,1002.08,VALID,0,VALID,89.5641,VALID,0,VALID,24.7337,VALID,70,VALID,0.523047,
2012-07-21, 00:13:04,VALID,1002.12,VALID,0,VALID,89.6938,VALID,0,VALID,24.7337,VALID,70,VALID,0.505859,
2012-07-21, 00:14:04,VALID,1002.11,VALID,0,VALID,89.9074,VALID,0,VALID,24.7551,VALID,70,VALID,0.619922,
2012-07-21, 00:15:04,VALID,1002.09,VALID,0,VALID,90.4491,VALID,0,VALID,24.7142,VALID,66,VALID,0.408984,
2012-07-21, 00:16:04,VALID,1002.11,VALID,0,VALID,91.3571,VALID,0,VALID,24.7142,VALID,66,VALID,0.398438,
2012-07-21, 00:17:04,VALID,1002.09,VALID,0,VALID,91.9903,VALID,0,VALID,24.6946,VALID,66,VALID,0.332031,
2012-07-21, 00:18:04,VALID,1002.13,VALID,0,VALID,92.2574,VALID,0,VALID,24.6575,VALID,66,VALID,0.324219,
2012-07-21, 00:19:04,VALID,1002.1,VALID,0,VALID,92.4557,VALID,0,VALID,24.5971,VALID,66,VALID,0.215234,
2012-07-21, 00:20:04,VALID,1002.1,VALID,0,VALID,92.5626,VALID,0,VALID,24.5775,VALID,66,VALID,0.275,
2012-07-21, 00:21:04,VALID,1002.08,VALID,0,VALID,92.532,VALID,0.104696,VALID,24.519,VALID,66,VALID,0.0175781,
2012-07-21, 00:22:04,VALID,1002.11,VALID,0,VALID,92.6846,VALID,0,VALID,24.4995,VALID,66,VALID,0.196484,
2012-07-21, 00:23:04,VALID,1002.09,VALID,0,VALID,92.7838,VALID,0,VALID,24.48,VALID,66,VALID,0.416406,
2012-07-21, 00:24:04,VALID,1002.06,VALID,0,VALID,92.7075,VALID,0,VALID,24.4604,VALID,66,VALID,0.274219,
2012-07-21, 00:25:04,VALID,1002.07,VALID,0,VALID,92.8296,VALID,0,VALID,24.4409,VALID,66,VALID,0.0707031,
2012-07-21, 00:26:04,VALID,1002.06,VALID,0,VALID,92.9898,VALID,0,VALID,24.4409,VALID,66,VALID,0,
2012-07-21, 00:27:04,VALID,1002.07,VALID,0,VALID,92.944,VALID,0,VALID,24.4214,VALID,66,VALID,0,
2012-07-21, 00:28:04,VALID,1002.02,VALID,0,VALID,92.8983,VALID,0,VALID,24.4019,VALID,66,VALID,0,
2012-07-21, 00:29:04,VALID,1002,VALID,0,VALID,92.7075,VALID,0,VALID,24.3824,VALID,66,VALID,0,
2012-07-21, 00:30:04,VALID,1002.01,VALID,0,VALID,92.6923,VALID,0,VALID,24.4037,VALID,66,VALID,0,
2012-07-21, 00:31:04,VALID,1001.95,VALID,0,VALID,92.5854,VALID,0,VALID,24.3842,VALID,66,VALID,0,
2012-07-21, 00:32:04,VALID,1001.95,VALID,0,VALID,92.4939,VALID,0,VALID,24.3842,VALID,66,VALID,0,
2012-07-21, 00:33:04,VALID,1001.94,VALID,0,VALID,92.3337,VALID,0,VALID,24.3433,VALID,66,VALID,0,
2012-07-21, 00:34:04,VALID,1001.9,VALID,0,VALID,92.1048,VALID,0,VALID,24.3647,VALID,66,VALID,0,
2012-07-21, 00:35:04,VALID,1001.92,VALID,0,VALID,92.1124,VALID,0,VALID,24.3629,VALID,66,VALID,0,
2012-07-21, 00:36:04,VALID,1001.93,VALID,0,VALID,92.265,VALID,0,VALID,24.3433,VALID,66,VALID,0,
2012-07-21, 00:37:04,VALID,1001.94,VALID,0,VALID,92.3566,VALID,0,VALID,24.3433,VALID,66,VALID,0,
2012-07-21, 00:38:04,VALID,1001.89,VALID,0,VALID,92.4252,VALID,0,VALID,24.3238,VALID,42,VALID,0.857031,
2012-07-21, 00:39:04,VALID,1001.93,VALID,0,VALID,92.3947,VALID,0,VALID,24.3043,VALID,26,VALID,1.19648,
2012-07-21, 00:40:04,VALID,1001.93,VALID,0,VALID,92.5397,VALID,0,VALID,24.2653,VALID,26,VALID,1.24805,
2012-07-21, 00:41:04,VALID,1001.93,VALID,0,VALID,92.8601,VALID,0,VALID,24.2067,VALID,26,VALID,1.09961,
2012-07-21, 00:42:04,VALID,1001.91,VALID,0,VALID,93.1424,VALID,0,VALID,24.1677,VALID,26,VALID,0.969531,
2012-07-21, 00:43:04,VALID,1001.93,VALID,0,VALID,93.3408,VALID,0,VALID,24.1092,VALID,30,VALID,1.02773,
2012-07-21, 00:44:04,VALID,1001.91,VALID,0,VALID,93.5086,VALID,0,VALID,24.0915,VALID,37,VALID,1.05,
2012-07-21, 00:45:04,VALID,1001.91,VALID,0,VALID,93.6307,VALID,0,VALID,24.0525,VALID,38,VALID,1.10781,
2012-07-21, 00:46:04,VALID,1001.89,VALID,0,VALID,93.8062,VALID,0,VALID,24.0311,VALID,37,VALID,1.34727,
2012-07-21, 00:47:04,VALID,1001.89,VALID,0,VALID,93.8901,VALID,0,VALID,24.0329,VALID,37,VALID,1.2875,
2012-07-21, 00:48:04,VALID,1001.87,VALID,0,VALID,93.9511,VALID,0,VALID,23.9921,VALID,37,VALID,1.08984,
2012-07-21, 00:49:04,VALID,1001.86,VALID,0,VALID,94.0198,VALID,0,VALID,23.9939,VALID,38,VALID,1.09297,
2012-07-21, 00:50:04,VALID,1001.85,VALID,0,VALID,93.9969,VALID,0,VALID,23.9531,VALID,37,VALID,1.06328,
2012-07-21, 00:51:04,VALID,1001.83,VALID,0,VALID,94.0045,VALID,0,VALID,23.9336,VALID,33,VALID,0.750391,
2012-07-21, 00:52:04,VALID,1001.84,VALID,0,VALID,94.0503,VALID,0,VALID,23.9336,VALID,33,VALID,0.675,
2012-07-21, 00:53:04,VALID,1001.83,VALID,0,VALID,94.0503,VALID,0,VALID,23.914,VALID,33,VALID,0.686328,
2012-07-21, 00:54:04,VALID,1001.81,VALID,0,VALID,94.0732,VALID,0,VALID,23.9354,VALID,33,VALID,0.548828,
2012-07-21, 00:55:04,VALID,1001.82,VALID,0,VALID,94.1343,VALID,0,VALID,23.8945,VALID,33,VALID,0.524219,
2012-07-21, 00:56:04,VALID,1001.77,VALID,0,VALID,94.18,VALID,0,VALID,23.8945,VALID,33,VALID,0.549219,
2012-07-21, 00:57:04,VALID,1001.78,VALID,0,VALID,94.2487,VALID,0,VALID,23.875,VALID,48,VALID,0.857813,
2012-07-21, 00:58:04,VALID,1001.77,VALID,0,VALID,94.2945,VALID,0,VALID,23.8732,VALID,50,VALID,0.746094,
2012-07-21, 00:59:04,VALID,1001.74,VALID,0,VALID,94.3784,VALID,0,VALID,23.8945,VALID,56,VALID,0.776563,
2012-07-21, 01:00:04,VALID,1001.74,VALID,0,VALID,94.4471,VALID,0,VALID,23.914,VALID,56,VALID,0.90625,
2012-07-21, 01:01:04,VALID,1001.74,VALID,0,VALID,94.4852,VALID,0,VALID,23.914,VALID,56,VALID,0.887891,
2012-07-21, 01:02:04,VALID,1001.71,VALID,0,VALID,94.5462,VALID,0,VALID,23.914,VALID,56,VALID,0.929688,
2012-07-21, 01:03:04,VALID,1001.72,VALID,0,VALID,94.5997,VALID,0,VALID,23.914,VALID,55,VALID,0.989844,
2012-07-21, 01:04:04,VALID,1001.71,VALID,0,VALID,94.6378,VALID,0,VALID,23.8945,VALID,55,VALID,1.03516,
2012-07-21, 01:05:04,VALID,1001.73,VALID,0,VALID,94.5997,VALID,0,VALID,23.8945,VALID,43,VALID,1.0332,
2012-07-21, 01:06:04,VALID,1001.72,VALID,0,VALID,94.592,VALID,0,VALID,23.8963,VALID,42,VALID,1.0125,
2012-07-21, 01:07:04,VALID,1001.74,VALID,0,VALID,94.5462,VALID,0.104696,VALID,23.875,VALID,46,VALID,1.15039,
2012-07-21, 01:08:04,VALID,1001.73,VALID,0,VALID,94.5005,VALID,0,VALID,23.875,VALID,40,VALID,0.941406,
2012-07-21, 01:09:04,VALID,1001.72,VALID,0,VALID,94.4089,VALID,0,VALID,23.8555,VALID,39,VALID,1.19844,
2012-07-21, 01:10:04,VALID,1001.74,VALID,0,VALID,94.2868,VALID,0,VALID,23.8555,VALID,40,VALID,1.0168,
2012-07-21, 01:11:04,VALID,1001.74,VALID,0,VALID,94.1953,VALID,0,VALID,23.8768,VALID,39,VALID,1.09922,
2012-07-21, 01:12:04,VALID,1001.72,VALID,0,VALID,94.1495,VALID,0,VALID,23.8768,VALID,37,VALID,0.944531,
2012-07-21, 01:13:04,VALID,1001.74,VALID,0,VALID,94.18,VALID,0,VALID,23.8555,VALID,37,VALID,0.954687,
2012-07-21, 01:14:04,VALID,1001.72,VALID,0,VALID,94.1419,VALID,0,VALID,23.836,VALID,34,VALID,1.03398,
2012-07-21, 01:15:04,VALID,1001.7,VALID,0,VALID,94.119,VALID,0,VALID,23.8555,VALID,33,VALID,0.955859,
2012-07-21, 01:16:04,VALID,1001.69,VALID,0,VALID,94.1877,VALID,0,VALID,23.836,VALID,33,VALID,0.9,
2012-07-21, 01:17:04,VALID,1001.66,VALID,0,VALID,94.2487,VALID,0,VALID,23.836,VALID,33,VALID,0.906641,
2012-07-21, 01:18:04,VALID,1001.69,VALID,0,VALID,94.3326,VALID,0,VALID,23.8165,VALID,33,VALID,1.11797,
2012-07-21, 01:19:04,VALID,1001.68,VALID,0,VALID,94.4013,VALID,0.104696,VALID,23.836,VALID,26,VALID,1.1707,
2012-07-21, 01:20:04,VALID,1001.68,VALID,0,VALID,94.4928,VALID,0,VALID,23.8165,VALID,26,VALID,0.94375,
2012-07-21, 01:21:04,VALID,1001.67,VALID,0,VALID,94.5157,VALID,0,VALID,23.8165,VALID,26,VALID,0.911719,
2012-07-21, 01:22:04,VALID,1001.66,VALID,0,VALID,94.5081,VALID,0,VALID,23.8378,VALID,26,VALID,0.75625,
2012-07-21, 01:23:04,VALID,1001.65,VALID,0,VALID,94.4776,VALID,0,VALID,23.797,VALID,26,VALID,0.859375,
2012-07-21, 01:24:04,VALID,1001.61,VALID,0,VALID,94.47,VALID,0,VALID,23.7775,VALID,26,VALID,1.01875,
2012-07-21, 01:25:04,VALID,1001.62,VALID,0,VALID,94.5081,VALID,0,VALID,23.7775,VALID,26,VALID,1.14219,
2012-07-21, 01:26:04,VALID,1001.58,VALID,0,VALID,94.531,VALID,0,VALID,23.797,VALID,18,VALID,0.886719,
2012-07-21, 01:27:04,VALID,1001.58,VALID,0,VALID,94.5539,VALID,0,VALID,23.797,VALID,18,VALID,0.844531,
2012-07-21, 01:28:04,VALID,1001.58,VALID,0,VALID,94.5844,VALID,0,VALID,23.797,VALID,20,VALID,0.864062,
2012-07-21, 01:29:04,VALID,1001.54,VALID,0,VALID,94.5768,VALID,0.104696,VALID,23.797,VALID,22,VALID,0.466016,
2012-07-21, 01:30:04,VALID,1001.54,VALID,0,VALID,94.5615,VALID,0.104696,VALID,23.7775,VALID,22,VALID,0.554297,
2012-07-21, 01:31:04,VALID,1001.51,VALID,0,VALID,94.4623,VALID,0,VALID,23.7775,VALID,22,VALID,0.758594,
2012-07-21, 01:32:04,VALID,1001.45,VALID,0,VALID,94.3097,VALID,0,VALID,23.7579,VALID,22,VALID,0.986328,
2012-07-21, 01:33:04,VALID,1001.46,VALID,0,VALID,94.0045,VALID,0,VALID,23.7579,VALID,22,VALID,0.918359,
2012-07-21, 01:34:04,VALID,1001.44,VALID,0,VALID,93.7299,VALID,0,VALID,23.7384,VALID,22,VALID,0.890234,
2012-07-21, 01:35:04,VALID,1001.4,VALID,0,VALID,93.5544,VALID,0.104696,VALID,23.7775,VALID,22,VALID,0.772656,
2012-07-21, 01:36:04,VALID,1001.4,VALID,0,VALID,93.4781,VALID,0,VALID,23.7793,VALID,22,VALID,0.799219,
2012-07-21, 01:37:04,VALID,1001.37,VALID,0,VALID,93.4094,VALID,0,VALID,23.7775,VALID,22,VALID,0.755859,
2012-07-21, 01:38:04,VALID,1001.4,VALID,0,VALID,93.3866,VALID,0,VALID,23.7775,VALID,22,VALID,0.617969,
2012-07-21, 01:39:04,VALID,1001.37,VALID,0,VALID,93.356,VALID,0,VALID,23.7775,VALID,22,VALID,0.545313,
2012-07-21, 01:40:04,VALID,1001.35,VALID,0,VALID,93.4171,VALID,0,VALID,23.7775,VALID,22,VALID,0.299219,
2012-07-21, 01:41:04,VALID,1001.33,VALID,0,VALID,93.4247,VALID,0,VALID,23.7775,VALID,22,VALID,0.280469,
2012-07-21, 01:42:04,VALID,1001.31,VALID,0,VALID,93.5468,VALID,0,VALID,23.7988,VALID,22,VALID,0.308594,
2012-07-21, 01:43:04,VALID,1001.31,VALID,0,VALID,93.6688,VALID,0,VALID,23.797,VALID,22,VALID,0.282813,
2012-07-21, 01:44:04,VALID,1001.28,VALID,0,VALID,93.7833,VALID,0,VALID,23.7775,VALID,22,VALID,0.288672,
2012-07-21, 01:45:04,VALID,1001.27,VALID,0,VALID,93.8977,VALID,0,VALID,23.7579,VALID,22,VALID,0.3875,
2012-07-21, 01:46:04,VALID,1001.28,VALID,0,VALID,93.9893,VALID,0,VALID,23.7579,VALID,22,VALID,0.241406,
2012-07-21, 01:47:04,VALID,1001.23,VALID,0,VALID,94.0503,VALID,0,VALID,23.7579,VALID,22,VALID,0.166016,
2012-07-21, 01:48:04,VALID,1001.25,VALID,0,VALID,94.0808,VALID,0,VALID,23.7384,VALID,22,VALID,0.0191406,
2012-07-21, 01:49:04,VALID,1001.25,VALID,0,VALID,94.1266,VALID,0,VALID,23.7384,VALID,22,VALID,0,
2012-07-21, 01:50:04,VALID,1001.23,VALID,0,VALID,94.1724,VALID,0,VALID,23.7384,VALID,22,VALID,0,
2012-07-21, 01:51:04,VALID,1001.24,VALID,0,VALID,94.2411,VALID,0,VALID,23.7189,VALID,22,VALID,0,
2012-07-21, 01:52:04,VALID,1001.22,VALID,0,VALID,94.264,VALID,0,VALID,23.7189,VALID,22,VALID,0.254297,
2012-07-21, 01:53:04,VALID,1001.16,VALID,0,VALID,94.3708,VALID,0,VALID,23.7189,VALID,22,VALID,0.392188,
2012-07-21, 01:54:04,VALID,1001.15,VALID,0,VALID,94.4776,VALID,0,VALID,23.7189,VALID,22,VALID,0.194922,
2012-07-21, 01:55:04,VALID,1001.17,VALID,0,VALID,94.5081,VALID,0,VALID,23.7189,VALID,22,VALID,0.195703,
2012-07-21, 01:56:04,VALID,1001.13,VALID,0,VALID,94.5234,VALID,0,VALID,23.7189,VALID,22,VALID,0.330078,
2012-07-21, 01:57:04,VALID,1001.12,VALID,0,VALID,94.5539,VALID,0,VALID,23.7384,VALID,142,VALID,0.623828,
2012-07-21, 01:58:04,VALID,1001.09,VALID,0,VALID,94.5997,VALID,0,VALID,23.7793,VALID,152,VALID,0.748828,
2012-07-21, 01:59:04,VALID,1001.06,VALID,0,VALID,94.6454,VALID,0,VALID,23.7775,VALID,160,VALID,0.936719,
2012-07-21, 02:00:04,VALID,1001.05,VALID,0,VALID,94.7294,VALID,0,VALID,23.797,VALID,160,VALID,0.670313,
2012-07-21, 02:01:04,VALID,1001.02,VALID,0,VALID,94.7675,VALID,0,VALID,23.797,VALID,160,VALID,0.612109,
2012-07-21, 02:02:04,VALID,1001.05,VALID,0,VALID,94.7294,VALID,0,VALID,23.797,VALID,160,VALID,0.699219,
2012-07-21, 02:03:04,VALID,1001.09,VALID,0,VALID,94.6836,VALID,0,VALID,23.8378,VALID,159,VALID,0.920313,
2012-07-21, 02:04:04,VALID,1001.08,VALID,0,VALID,94.4776,VALID,0,VALID,23.797,VALID,151,VALID,1.03516,
2012-07-21, 02:05:04,VALID,1001.1,VALID,0,VALID,94.2716,VALID,0,VALID,23.836,VALID,150,VALID,0.933984,
2012-07-21, 02:06:04,VALID,1001.1,VALID,0,VALID,94.0808,VALID,0,VALID,23.8555,VALID,149,VALID,1.01797,
2012-07-21, 02:07:04,VALID,1001.1,VALID,0,VALID,93.9359,VALID,0,VALID,23.8945,VALID,149,VALID,1.14844,
2012-07-21, 02:08:04,VALID,1001.1,VALID,0,VALID,93.8825,VALID,0,VALID,23.875,VALID,149,VALID,1.10391,
2012-07-21, 02:09:04,VALID,1001.09,VALID,0,VALID,93.8825,VALID,0,VALID,23.875,VALID,149,VALID,0.786719,
2012-07-21, 02:10:04,VALID,1001.07,VALID,0,VALID,93.9435,VALID,0,VALID,23.8945,VALID,149,VALID,0.728125,
2012-07-21, 02:11:04,VALID,1001.02,VALID,0,VALID,94.0122,VALID,0,VALID,23.8945,VALID,149,VALID,0.763281,
2012-07-21, 02:12:04,VALID,1001,VALID,0,VALID,94.1648,VALID,0.104696,VALID,23.8732,VALID,149,VALID,0.611719,
2012-07-21, 02:13:04,VALID,1000.97,VALID,0,VALID,94.3097,VALID,0,VALID,23.8945,VALID,149,VALID,0.470313,
2012-07-21, 02:14:04,VALID,1000.94,VALID,0,VALID,94.4623,VALID,0.104696,VALID,23.8945,VALID,149,VALID,0.356641,
2012-07-21, 02:15:04,VALID,1000.9,VALID,0,VALID,94.5997,VALID,0,VALID,23.9159,VALID,149,VALID,0.322656,
2012-07-21, 02:16:04,VALID,1000.92,VALID,0.5,VALID,94.737,VALID,0,VALID,23.914,VALID,149,VALID,0.806641,
2012-07-21, 02:17:04,VALID,1000.94,VALID,0,VALID,94.8438,VALID,0,VALID,23.9159,VALID,149,VALID,0.775391,
2012-07-21, 02:18:04,VALID,1000.94,VALID,0,VALID,94.9048,VALID,0,VALID,23.8945,VALID,149,VALID,0.647656,
2012-07-21, 02:19:04,VALID,1000.93,VALID,0,VALID,94.9964,VALID,0,VALID,23.8963,VALID,149,VALID,0.698047,
2012-07-21, 02:20:04,VALID,1000.92,VALID,0,VALID,94.9964,VALID,0,VALID,23.875,VALID,149,VALID,0.477734,
2012-07-21, 02:21:04,VALID,1000.88,VALID,0,VALID,95.0422,VALID,0,VALID,23.8963,VALID,149,VALID,0.580078,
2012-07-21, 02:22:04,VALID,1000.84,VALID,0,VALID,95.0727,VALID,0,VALID,23.8555,VALID,126,VALID,0.727734,
2012-07-21, 02:23:04,VALID,1000.81,VALID,0,VALID,95.0651,VALID,0,VALID,23.836,VALID,125,VALID,0.732813,
2012-07-21, 02:24:04,VALID,1000.78,VALID,0,VALID,95.1337,VALID,0,VALID,23.8165,VALID,125,VALID,0.555859,
2012-07-21, 02:25:04,VALID,1000.75,VALID,0,VALID,95.1871,VALID,0,VALID,23.7988,VALID,125,VALID,0.560156,
2012-07-21, 02:26:04,VALID,1000.77,VALID,0,VALID,95.2024,VALID,0,VALID,23.7775,VALID,125,VALID,0.694531,
2012-07-21, 02:27:04,VALID,1000.72,VALID,0,VALID,95.2482,VALID,0,VALID,23.7775,VALID,125,VALID,0.689453,
2012-07-21, 02:28:04,VALID,1000.69,VALID,0,VALID,95.2634,VALID,0.104696,VALID,23.7775,VALID,125,VALID,0.728906,
2012-07-21, 02:29:04,VALID,1000.68,VALID,0,VALID,95.2863,VALID,0,VALID,23.7775,VALID,125,VALID,0.783984,
2012-07-21, 02:30:04,VALID,1000.69,VALID,0,VALID,95.3016,VALID,0,VALID,23.7775,VALID,114,VALID,1.08047,
2012-07-21, 02:31:04,VALID,1000.67,VALID,0,VALID,95.3168,VALID,0,VALID,23.7579,VALID,113,VALID,1.24414,
2012-07-21, 02:32:04,VALID,1000.69,VALID,0,VALID,95.3245,VALID,0,VALID,23.7579,VALID,113,VALID,0.987109,
2012-07-21, 02:33:04,VALID,1000.67,VALID,0,VALID,95.3779,VALID,0,VALID,23.7579,VALID,101,VALID,0.763281,
2012-07-21, 02:34:04,VALID,1000.7,VALID,0,VALID,95.4084,VALID,0,VALID,23.7402,VALID,99,VALID,0.665234,
2012-07-21, 02:35:04,VALID,1000.73,VALID,0,VALID,95.4313,VALID,0,VALID,23.6994,VALID,99,VALID,0.610156,
2012-07-21, 02:36:04,VALID,1000.68,VALID,0,VALID,95.4618,VALID,0,VALID,23.6799,VALID,99,VALID,0.637109,
2012-07-21, 02:37:04,VALID,1000.69,VALID,0,VALID,95.4771,VALID,0,VALID,23.6604,VALID,80,VALID,0.789063,
2012-07-21, 02:38:04,VALID,1000.72,VALID,0,VALID,95.4771,VALID,0,VALID,23.6409,VALID,65,VALID,1.05352,
2012-07-21, 02:39:04,VALID,1000.73,VALID,0,VALID,95.4923,VALID,0,VALID,23.5823,VALID,56,VALID,1.20156,
2012-07-21, 02:40:04,VALID,1000.7,VALID,0,VALID,95.4923,VALID,0.104696,VALID,23.5823,VALID,46,VALID,1.28047,
2012-07-21, 02:41:04,VALID,1000.71,VALID,0,VALID,95.4923,VALID,0,VALID,23.5238,VALID,39,VALID,1.21172,
2012-07-21, 02:42:04,VALID,1000.72,VALID,0,VALID,95.5,VALID,0,VALID,23.5238,VALID,41,VALID,1.14688,
2012-07-21, 02:43:04,VALID,1000.71,VALID,0,VALID,95.4923,VALID,0,VALID,23.5238,VALID,41,VALID,1.12578,
2012-07-21, 02:44:04,VALID,1000.69,VALID,0,VALID,95.5,VALID,0,VALID,23.5238,VALID,44,VALID,1.20547,
2012-07-21, 02:45:04,VALID,1000.7,VALID,0,VALID,95.5381,VALID,0,VALID,23.5043,VALID,59,VALID,1.52852,
2012-07-21, 02:46:04,VALID,1000.7,VALID,0,VALID,95.5534,VALID,0,VALID,23.5043,VALID,60,VALID,1.42891,
2012-07-21, 02:47:04,VALID,1000.67,VALID,0,VALID,95.5228,VALID,0,VALID,23.4848,VALID,73,VALID,1.57852,
2012-07-21, 02:48:04,VALID,1000.64,VALID,0,VALID,95.5457,VALID,0,VALID,23.4848,VALID,75,VALID,1.31797,
2012-07-21, 02:49:04,VALID,1000.64,VALID,0,VALID,95.5305,VALID,0,VALID,23.4653,VALID,73,VALID,0.865234,
2012-07-21, 02:50:04,VALID,1000.66,VALID,0,VALID,95.5228,VALID,0.104696,VALID,23.4653,VALID,82,VALID,1.03789,
2012-07-21, 02:51:04,VALID,1000.63,VALID,0,VALID,95.5228,VALID,0,VALID,23.4653,VALID,82,VALID,1.05742,
2012-07-21, 02:52:04,VALID,1000.65,VALID,0,VALID,95.5076,VALID,0,VALID,23.4458,VALID,81,VALID,1.08672,
2012-07-21, 02:53:04,VALID,1000.64,VALID,0,VALID,95.5152,VALID,0,VALID,23.4263,VALID,74,VALID,0.730469,
2012-07-21, 02:54:04,VALID,1000.68,VALID,0,VALID,95.5,VALID,0,VALID,23.4458,VALID,75,VALID,0.678906,
2012-07-21, 02:55:04,VALID,1000.64,VALID,0,VALID,95.5076,VALID,0,VALID,23.4263,VALID,73,VALID,0.730469,
2012-07-21, 02:56:04,VALID,1000.66,VALID,0,VALID,95.4847,VALID,0,VALID,23.4263,VALID,74,VALID,0.446484,
2012-07-21, 02:57:04,VALID,1000.66,VALID,0,VALID,95.4847,VALID,0,VALID,23.4067,VALID,62,VALID,0.398438,
2012-07-21, 02:58:04,VALID,1000.65,VALID,0,VALID,95.5,VALID,0,VALID,23.4067,VALID,64,VALID,0.454297,
2012-07-21, 02:59:04,VALID,1000.63,VALID,0,VALID,95.4923,VALID,0,VALID,23.4067,VALID,64,VALID,0.385547,
2012-07-21, 03:00:04,VALID,1000.61,VALID,0,VALID,95.4618,VALID,0,VALID,23.3872,VALID,64,VALID,0.478906,
2012-07-21, 03:01:04,VALID,1000.61,VALID,0,VALID,95.4847,VALID,0,VALID,23.3872,VALID,64,VALID,0.444141,
2012-07-21, 03:02:04,VALID,1000.61,VALID,0,VALID,95.4694,VALID,0,VALID,23.4085,VALID,64,VALID,0.448047,
2012-07-21, 03:03:04,VALID,1000.62,VALID,0,VALID,95.4694,VALID,0,VALID,23.3872,VALID,64,VALID,0.311328,
2012-07-21, 03:04:04,VALID,1000.65,VALID,0,VALID,95.4542,VALID,0,VALID,23.4067,VALID,64,VALID,0.333984,
2012-07-21, 03:05:04,VALID,1000.66,VALID,0,VALID,95.4465,VALID,0,VALID,23.389,VALID,64,VALID,0.4375,
2012-07-21, 03:06:04,VALID,1000.64,VALID,0,VALID,95.4542,VALID,0,VALID,23.4085,VALID,64,VALID,0.425,
2012-07-21, 03:07:04,VALID,1000.66,VALID,0,VALID,95.4313,VALID,0,VALID,23.4085,VALID,97,VALID,0.76875,
2012-07-21, 03:08:04,VALID,1000.67,VALID,0,VALID,95.4313,VALID,0,VALID,23.428,VALID,104,VALID,0.832812,
2012-07-21, 03:09:04,VALID,1000.65,VALID,0,VALID,95.416,VALID,0,VALID,23.428,VALID,113,VALID,0.525391,
2012-07-21, 03:10:04,VALID,1000.66,VALID,0,VALID,95.4084,VALID,0,VALID,23.428,VALID,113,VALID,0.533594,
2012-07-21, 03:11:04,VALID,1000.65,VALID,0,VALID,95.3626,VALID,0,VALID,23.428,VALID,113,VALID,0.230078,
2012-07-21, 03:12:04,VALID,1000.67,VALID,0,VALID,95.355,VALID,0,VALID,23.428,VALID,113,VALID,0.0917969,
2012-07-21, 03:13:04,VALID,1000.65,VALID,0,VALID,95.3626,VALID,0,VALID,23.4493,VALID,113,VALID,0,
2012-07-21, 03:14:04,VALID,1000.67,VALID,0,VALID,95.3626,VALID,0,VALID,23.4085,VALID,113,VALID,0.2375,
2012-07-21, 03:15:04,VALID,1000.65,VALID,0,VALID,95.3703,VALID,0,VALID,23.4475,VALID,113,VALID,0.0847656,
2012-07-21, 03:16:04,VALID,1000.66,VALID,0,VALID,95.416,VALID,0,VALID,23.428,VALID,113,VALID,0.490234,
2012-07-21, 03:17:04,VALID,1000.65,VALID,0,VALID,95.4313,VALID,0,VALID,23.4493,VALID,113,VALID,0.541797,
2012-07-21, 03:18:04,VALID,1000.64,VALID,0,VALID,95.416,VALID,0,VALID,23.428,VALID,110,VALID,0.634766,
2012-07-21, 03:19:04,VALID,1000.67,VALID,0,VALID,95.4008,VALID,0,VALID,23.428,VALID,105,VALID,0.346875,
2012-07-21, 03:20:04,VALID,1000.68,VALID,0,VALID,95.3931,VALID,0,VALID,23.4263,VALID,104,VALID,0.460547,
2012-07-21, 03:21:04,VALID,1000.71,VALID,0,VALID,95.3931,VALID,0,VALID,23.4263,VALID,102,VALID,0.543359,
2012-07-21, 03:22:04,VALID,1000.7,VALID,0,VALID,95.3703,VALID,0,VALID,23.4067,VALID,61,VALID,0.685938,
2012-07-21, 03:23:04,VALID,1000.7,VALID,0,VALID,95.3168,VALID,0,VALID,23.428,VALID,44,VALID,0.594141,
2012-07-21, 03:24:04,VALID,1000.69,VALID,0,VALID,95.2634,VALID,0,VALID,23.3872,VALID,44,VALID,0.75,
2012-07-21, 03:25:04,VALID,1000.7,VALID,0,VALID,95.1948,VALID,0,VALID,23.4067,VALID,43,VALID,0.990625,
2012-07-21, 03:26:04,VALID,1000.73,VALID,0,VALID,95.1414,VALID,0,VALID,23.4085,VALID,25,VALID,0.936328,
2012-07-21, 03:27:04,VALID,1000.73,VALID,0,VALID,95.1185,VALID,0,VALID,23.3872,VALID,21,VALID,0.867969,
2012-07-21, 03:28:04,VALID,1000.72,VALID,0,VALID,95.088,VALID,0,VALID,23.3482,VALID,14,VALID,0.890234,
2012-07-21, 03:29:04,VALID,1000.69,VALID,0,VALID,95.1108,VALID,0,VALID,23.3287,VALID,7,VALID,1.23086,
2012-07-21, 03:30:04,VALID,1000.71,VALID,0,VALID,95.1185,VALID,0,VALID,23.3092,VALID,9,VALID,1.01641,
2012-07-21, 03:31:04,VALID,1000.68,VALID,0,VALID,95.149,VALID,0,VALID,23.3092,VALID,7,VALID,1.33828,
2012-07-21, 03:32:04,VALID,1000.71,VALID,0,VALID,95.1108,VALID,0,VALID,23.2897,VALID,11,VALID,1.58008,
2012-07-21, 03:33:04,VALID,1000.67,VALID,0,VALID,95.0345,VALID,0,VALID,23.3092,VALID,8,VALID,1.31797,
2012-07-21, 03:34:04,VALID,1000.68,VALID,0,VALID,94.9659,VALID,0,VALID,23.3305,VALID,10,VALID,1.45391,
2012-07-21, 03:35:04,VALID,1000.7,VALID,0,VALID,94.8591,VALID,0,VALID,23.2897,VALID,21,VALID,1.16523,
2012-07-21, 03:36:04,VALID,1000.69,VALID,0,VALID,94.7904,VALID,0,VALID,23.3092,VALID,22,VALID,1.37969,
2012-07-21, 03:37:04,VALID,1000.7,VALID,0,VALID,94.7141,VALID,0.104696,VALID,23.3092,VALID,35,VALID,1.40156,
2012-07-21, 03:38:04,VALID,1000.7,VALID,0,VALID,94.676,VALID,0,VALID,23.3305,VALID,32,VALID,1.21523,
2012-07-21, 03:39:04,VALID,1000.7,VALID,0,VALID,94.6226,VALID,0,VALID,23.2897,VALID,35,VALID,0.980859,
2012-07-21, 03:40:04,VALID,1000.72,VALID,0,VALID,94.5997,VALID,0,VALID,23.3092,VALID,36,VALID,1.08672,
2012-07-21, 03:41:04,VALID,1000.72,VALID,0,VALID,94.6149,VALID,0,VALID,23.311,VALID,36,VALID,1.09141,
2012-07-21, 03:42:04,VALID,1000.72,VALID,0,VALID,94.6454,VALID,0,VALID,23.311,VALID,35,VALID,1.06211,
2012-07-21, 03:43:04,VALID,1000.72,VALID,0,VALID,94.676,VALID,0,VALID,23.3092,VALID,35,VALID,0.696484,
2012-07-21, 03:44:04,VALID,1000.77,VALID,0,VALID,94.6912,VALID,0,VALID,23.2702,VALID,35,VALID,0.594922,
2012-07-21, 03:45:04,VALID,1000.75,VALID,0,VALID,94.7065,VALID,0,VALID,23.2507,VALID,35,VALID,0.680469,
2012-07-21, 03:46:04,VALID,1000.75,VALID,0,VALID,94.7751,VALID,0,VALID,23.2312,VALID,35,VALID,0.466406,
2012-07-21, 03:47:04,VALID,1000.77,VALID,0,VALID,94.8057,VALID,0,VALID,23.2117,VALID,35,VALID,0.215234,